Date String (YYYY-MM-DD hh:mm:ss) UTC,Instrument flags,Ambient pressure (hPa),Sample flow (lpm),Bypass flow (lpm),Sample temperature (°C),Ambient temperature (°C),ASC tube jacket temperature (°C),LED temperature (°C),Box temperature (°C),Sample RH (%),Span deviation,Mass concentration (μg/m³),Mass concentration (μg/m³),Mass concentration (μg/m³)
DateTimeUTC,F1_M11,P_M11,Q1_M11,Q2_M11,T1_M11,T2_M11,T3_M11,T4_M11,T5_M11,U1_M11,ZSPAN_M11,X2_M11,X0_M11,X1_M11
2023-04-12 08:00:00,,0827.4,5.00,0.00,30.0,28.2,00.0,38.4,31.4,07.4,0000.0,0003.68,0012.16,0001.98
2023-04-12 08:01:00,,0827.6,5.00,0.00,29.9,28.2,00.0,38.3,31.4,07.6,0000.0,0003.62,0011.90,0001.99
2023-04-12 08:02:00,,0827.7,5.00,0.00,29.9,28.2,00.0,38.3,31.4,07.6,0000.0,0003.57,0012.27,0002.00
2023-04-12 08:03:00,,0827.4,5.00,0.00,29.9,28.2,00.0,38.3,31.4,07.2,0000.0,0003.54,0011.89,0002.01
2023-04-12 08:04:00,,0827.4,5.00,0.00,29.9,28.1,00.0,38.3,31.4,07.1,0000.0,0003.52,0011.36,0002.02
2023-04-12 08:05:00,,0827.4,5.00,0.00,29.9,28.1,00.0,38.3,31.4,07.2,0000.0,0003.52,0010.24,0002.01
2023-04-12 08:06:00,,0827.3,4.99,0.00,29.9,28.1,00.0,38.3,31.4,07.3,0000.0,0003.47,0010.94,0002.01
2023-04-12 08:07:00,,0827.2,5.00,0.00,29.9,28.1,00.0,38.3,31.4,07.7,0000.0,0003.44,0011.46,0002.00
2023-04-12 08:08:00,,0827.3,5.00,0.00,29.9,28.1,00.0,38.3,31.4,07.4,0000.0,0003.47,0011.65,0002.01
2023-04-12 08:09:00,,0827.4,5.00,0.00,29.9,28.1,00.0,38.3,31.4,07.6,0000.0,0003.49,0011.68,0002.04
2023-04-12 08:10:00,,0827.4,5.00,0.00,29.9,28.1,00.0,38.3,31.3,08.2,0000.0,0003.53,0011.77,0002.07
2023-04-12 08:11:00,,0827.4,5.00,0.00,29.8,28.1,00.0,38.3,31.3,08.0,0000.0,0003.57,0011.95,0002.09
2023-04-12 08:12:00,,0827.4,5.00,0.00,29.8,28.1,00.0,38.3,31.3,07.7,0000.0,0003.58,0011.86,0002.08
2023-04-12 08:13:00,,0827.3,5.00,0.00,29.8,28.0,00.0,38.3,31.3,07.7,0000.0,0003.60,0010.93,0002.11
2023-04-12 08:14:00,,0827.4,5.00,0.00,29.8,28.0,00.0,38.2,31.3,07.7,0000.0,0003.63,0011.36,0002.14
2023-04-12 08:15:00,,0827.3,5.00,0.00,29.8,28.0,00.0,38.2,31.3,08.1,0000.0,0003.64,0011.68,0002.16
2023-04-12 08:16:00,,0827.3,5.00,0.00,29.8,28.0,00.0,38.2,31.3,07.8,0000.0,0003.72,0011.81,0002.21
2023-04-12 08:17:00,,0827.3,5.00,0.00,29.8,28.0,00.0,38.2,31.3,08.2,0000.0,0003.81,0011.59,0002.26
2023-04-12 08:18:00,,0827.3,5.00,0.00,29.8,28.0,00.0,38.2,31.3,08.5,0000.0,0003.82,0010.65,0002.29
2023-04-12 08:19:00,,0827.3,5.00,0.00,29.8,28.0,00.0,38.2,31.3,08.3,0000.0,0003.84,0010.70,0002.33
2023-04-12 08:20:00,,0827.3,5.00,0.00,29.8,28.0,00.0,38.2,31.3,08.1,0000.0,0003.89,0011.06,0002.36
2023-04-12 08:21:00,,0827.3,5.00,0.00,29.8,28.0,00.0,38.2,31.3,08.1,0000.0,0003.95,0011.50,0002.39
2023-04-12 08:22:00,,0827.3,4.99,0.00,29.8,28.0,00.0,38.2,31.3,08.2,0000.0,0003.97,0011.73,0002.41
2023-04-12 08:23:00,,0827.3,5.00,0.00,29.8,28.0,00.0,38.2,31.3,08.2,0000.0,0003.99,0012.04,0002.42
2023-04-12 08:24:00,,0827.2,5.00,0.00,29.8,28.0,00.0,38.2,31.3,08.1,0000.0,0004.02,0012.18,0002.41
2023-04-12 08:25:00,,0827.2,5.00,0.00,29.7,28.0,00.0,38.2,31.3,08.1,0000.0,0004.04,0011.71,0002.43
2023-04-12 08:26:00,,0827.2,5.00,0.00,29.8,28.0,00.0,38.2,31.3,08.2,0000.0,0004.07,0011.70,0002.44
2023-04-12 08:27:00,,0827.2,5.00,0.00,29.7,28.0,00.0,38.2,31.3,08.2,0000.0,0004.07,0012.03,0002.45
2023-04-12 08:28:00,,0827.1,5.00,0.00,29.7,28.0,00.0,38.1,31.3,08.2,0000.0,0004.04,0011.87,0002.47
2023-04-12 08:29:00,,0827.1,5.00,0.00,29.7,28.0,00.0,38.1,31.2,08.2,0000.0,0004.01,0011.76,0002.47
2023-04-12 08:30:00,,0827.2,5.00,0.00,29.7,28.0,00.0,38.1,31.2,08.3,0000.0,0004.03,0011.69,0002.48
2023-04-12 08:31:00,,0827.1,5.01,0.00,29.7,28.0,00.0,38.1,31.2,08.3,0000.0,0004.07,0011.60,0002.49
2023-04-12 08:32:00,,0827.1,4.99,0.00,29.7,27.9,00.0,38.1,31.2,08.4,0000.0,0004.06,0011.26,0002.49
2023-04-12 08:33:00,,0827.1,5.01,0.00,29.7,27.9,00.0,38.1,31.2,08.4,0000.0,0004.07,0011.58,0002.52
2023-04-12 08:34:00,,0827.1,5.01,0.00,29.7,27.9,00.0,38.1,31.2,08.3,0000.0,0004.08,0011.73,0002.56
2023-04-12 08:35:00,,0827.1,5.00,0.00,29.7,27.9,00.0,38.1,31.1,08.3,0000.0,0004.09,0012.11,0002.61
2023-04-12 08:36:00,,0827.2,4.99,0.00,29.7,27.9,00.0,38.1,31.1,08.3,0000.0,0004.15,0011.82,0002.65
2023-04-12 08:37:00,,0827.1,5.00,0.00,29.6,27.8,00.0,38.1,31.1,08.3,0000.0,0004.18,0011.46,0002.70
2023-04-12 08:38:00,,0827.1,5.00,0.00,29.7,27.8,00.0,38.1,31.1,08.3,0000.0,0004.20,0011.64,0002.74
2023-04-12 08:39:00,,0827.2,5.00,0.00,29.7,27.8,00.0,38.1,31.1,08.3,0000.0,0004.26,0011.61,0002.79
2023-04-12 08:40:00,,0827.1,5.00,0.00,29.6,27.8,00.0,38.1,31.2,08.3,0000.0,0004.28,0011.58,0002.84
2023-04-12 08:41:00,,0827.2,5.00,0.00,29.6,27.8,00.0,38.1,31.2,08.3,0000.0,0004.32,0011.74,0002.89
2023-04-12 08:42:00,,0827.1,5.00,0.00,29.6,27.8,00.0,38.1,31.1,08.3,0000.0,0004.29,0011.84,0002.93
2023-04-12 08:43:00,,0827.1,5.00,0.00,29.6,27.8,00.0,38.0,31.1,08.2,0000.0,0004.35,0011.98,0002.99
2023-04-12 08:44:00,,0827.1,5.00,0.00,29.6,27.8,00.0,38.0,31.1,08.2,0000.0,0004.42,0011.82,0003.03
2023-04-12 08:45:00,,0827.2,4.99,0.00,29.6,27.8,00.0,38.0,31.1,08.2,0000.0,0004.40,0011.27,0003.06
2023-04-12 08:46:00,,0827.1,5.00,0.00,29.6,27.8,00.0,38.0,31.1,08.2,0000.0,0004.42,0010.87,0003.08
2023-04-12 08:47:00,,0827.2,5.00,0.00,29.6,27.8,00.0,38.0,31.1,08.2,0000.0,0004.42,0010.86,0003.09
2023-04-12 08:48:00,,0827.2,5.00,0.00,29.6,27.8,00.0,38.0,31.1,08.2,0000.0,0004.46,0010.96,0003.11
2023-04-12 08:49:00,,0827.1,4.99,0.00,29.6,27.8,00.0,38.0,31.1,08.2,0000.0,0004.45,0010.52,0003.12
2023-04-12 08:50:00,,0827.1,5.00,0.00,29.6,27.8,00.0,38.0,31.1,08.2,0000.0,0004.47,0010.24,0003.11
2023-04-12 08:51:00,,0827.1,5.00,0.00,29.6,27.8,00.0,38.0,31.0,08.2,0000.0,0004.54,0010.82,0003.12
2023-04-12 08:52:00,,0827.1,5.00,0.00,29.6,27.8,00.0,38.0,31.0,08.3,0000.0,0004.56,0010.90,0003.13
2023-04-12 08:53:00,,0827.1,5.00,0.00,29.6,27.8,00.0,38.0,31.1,08.3,0000.0,0004.60,0011.16,0003.14
2023-04-12 08:54:00,,0827.0,5.00,0.00,29.6,27.8,00.0,38.0,31.1,08.3,0000.0,0004.58,0011.38,0003.15
2023-04-12 08:55:00,,0827.1,5.00,0.00,29.6,27.8,00.0,38.0,31.0,08.3,0000.0,0004.49,0011.45,0003.14
2023-04-12 08:56:00,,0827.1,5.00,0.00,29.6,27.7,00.0,38.0,31.0,08.3,0000.0,0004.48,0011.34,0003.13
2023-04-12 08:57:00,,0827.0,5.00,0.00,29.6,27.7,00.0,38.0,31.0,08.3,0000.0,0004.49,0011.34,0003.13
2023-04-12 08:58:00,,0827.0,5.00,0.00,29.5,27.7,00.0,38.0,31.0,08.3,0000.0,0004.52,0011.33,0003.14
2023-04-12 08:59:00,,0827.0,5.00,0.00,29.5,27.7,00.0,37.9,31.0,08.3,0000.0,0004.50,0011.22,0003.14
